www.pogodaiklimat.ru

Погода и климат >> Архив погоды >> Россия >> Магаданская область >> Колымская


ПОГОДА в Колымской

  • Прогноз погоды в Колымской
  • Монитор погоды в Колымской

АРХИВ ПОГОДЫ в Колымской

Время (UTC), дата Ветер
(напр.,м/с)
 
Видим.   Явления Облачность Т
(С)
Тd
(С)
f
(%)
Тe
(С)
Тes
(С)
Комфортность P
(гПа)
Po
(гПа)
Тmin
(С)
Tmax
(С)
R
(мм)
R24
(мм)
S
(см)
12 13.06 СВ 1 н/о н/о +4.4 +0.2 74 +3 +3 1015.8 917.1
15 13.06 В 1 50 км ясно -0.4 -0.8 97 -3 -3 1018.3 917.7
18 13.06 В 1 н/о н/о -1.7 -1.7 100 -4 -4 1018.7 917.6
21 13.06 штиль 0 50 км ясно +9.0 +1.9 61 +9 +14 1014.2 917.2 -1.9
00 14.06 Ю 1 н/о н/о +13.4 +1.8 45 +14 +14 1011.6 916.3
03 14.06 З 1 50 км 9/9 1000 м
[Cu med, cong]
+15.5 -0.0 35 +16 +18 1010.1 915.6
06 14.06 Ю 2 н/о н/о +16.8 -0.9 30 +17 +17 1008.7 914.7
09 14.06 Ю 2 50 км 1/1 1000 м
[Cu med, cong]
+16.3 0.0 33 +17 +18 1009.4 915.2 +18.2
12 14.06 С 1 н/о н/о +4.6 +1.1 78 +3 +3 1015.7 917.1
15 14.06 штиль 0 50 км 3/3 1000 м
[Sc]
+1.2 +0.7 96 -0 -0 1018.3 918.4
18 14.06 В 1 н/о н/о -1.1 -1.1 100 -3 -3 1019.7 918.8
21 14.06 штиль 0 50 км ясно +10.6 +2.8 58 +10 +16 1015.6 919.0 -1.1
00 15.06 ЮЗ 2 н/о н/о +14.6 +2.3 43 +15 +15 1013.9 918.8
03 15.06 ЮЗ 1 50 км 10/5 1000 м
[Cu med, cong Ci fib]
+15.7 -1.9 30 +17 +23 1013.3 918.5
06 15.06 ЮВ 2 н/о н/о +18.4 -4.3 21 +19 +19 1011.9 918.0
09 15.06 ЮВ 2 50 км ясно +17.1 -3.7 24 +18 +19 1012.3 918.4 +19.0
12 15.06 С 2 н/о н/о +5.2 -0.6 66 +3 +3 1018.9 920.2
15 15.06 В 1 50 км ясно +0.1 -2.1 85 -2 -2 1021.7 920.9
18 15.06 В 1 н/о н/о -0.9 -2.3 90 -3 -3 1022.2 921.1
21 15.06 ЮЗ 1 50 км 8/0
[Ci fib]
+11.9 -3.7 33 +12 +17 1016.9 920.5 -1.4
00 16.06 Ю 3 н/о н/о +16.3 -3.5 25 +16 +16 1013.7 919.0
03 16.06 В 3 50 км 10/3 1000 м
[Cu hum Ci fib]
+17.3 -3.0 25 +17 +24 1011.5 917.3
06 16.06 ЮВ 3 н/о н/о +17.0 -3.7 24 +17 +17 1010.0 915.8
09 16.06 ЮВ 4 50 км 10/3 1000 м
[Sc Ac lent Ci fib]
+14.6 -3.2 29 +14 +14 1009.9 915.0 +18.3
12 16.06 ЮВ 1
{11}
н/о н/о +10.0 +1.7 56 +10 +10 1011.7 915.3
15 16.06 В 2 20 км слаб. ливневой дождь 10/10 1000 м
[Cb cap]
+6.1 +4.4 89 +4 +4 1012.7 915.0
18 16.06 штиль 0 н/о н/о +4.9 +4.4 97 +4 +4 1013.0 914.9
21 16.06 ЮВ 3 50 км в посл. час ливневой дождь 9/9 1000 м
[Cb cap]
+5.5 +1.3 74 +2 +3 1013.9 915.8 +4.6 2
00 17.06 ЮВ 2 н/о н/о +6.4 +0.2 65 +4 +4 1014.7 916.8 +4.3
03 17.06 Ю 1 50 км 10/10 1000 м
[Sc]
+7.5 -1.2 54 +7 +7 1014.6 917.0
06 17.06 ЮВ 2 н/о н/о +9.8 -2.0 44 +9 +9 1013.2 916.6
09 17.06 В 2 50 км 10/3 1000 м
[Sc As trans]
+8.5 -1.5 49 +7 +8 1013.3 916.2 +10.7
12 17.06 В 2 н/о н/о +6.5 +0.5 65 +5 +5 1014.1 916.3
15 17.06 ЮВ 1 50 км 10/3 1000 м
[Sc As trans]
+5.4 +1.5 76 +4 +4 1013.4 915.3
18 17.06 штиль 0 н/о н/о +4.0 +3.2 95 +3 +3 1013.3 914.8
21 17.06 С 2 20 км слаб. дождь 10/0 1000 м
[As op]
+6.7 +4.0 83 +4 +7 1012.0 914.6 +3.7 0.7
00 18.06 С 3 н/о н/о +8.4 +4.9 79 +6 +6 1011.2 914.4
03 18.06 С 3 50 км {ливн. осадки, дождь} 10/10 1000 м
[Sc]
+10.4 +5.7 73 +8 +8 1009.6 913.6
06 18.06 СВ 3 н/о н/о +10.9 +5.6 70 +9 +9 1009.4 913.6
09 18.06 С 3 50 км 10/10 1000 м
[Sc]
+10.4 +4.6 67 +9 +9 1009.8 913.8 +11.2
12 18.06 С 3 н/о н/о +9.7 +4.7 71 +8 +8 1010.4 914.1
15 18.06 С 4 50 км 10/10 1000 м
[Sc]
+9.3 +5.0 74 +7 +7 1010.2 913.8
18 18.06 С 2 н/о н/о +9.3 +5.0 74 +8 +8 1010.2 913.8
21 18.06 СВ 3 50 км 10/10 1000 м
[Sc]
+11.5 +6.1 69 +10 +10 1009.2 913.6 +9.2
00 19.06 СВ 4 н/о н/о +14.3 +6.9 61 +13 +13 1008.4 913.8
03 19.06 С 2 50 км 9/9 1000 м
[Cb cap]
+15.7 +6.9 56 +16 +17 1007.5 913.4
06 19.06 СВ 1 н/о н/о +15.1 +6.7 57 +16 +16 1007.5 913.2
09 19.06 СВ 2 50 км 10/10 1000 м
[Sc]
+13.8 +6.9 63 +13 +13 1008.2 913.4 +16.5
12 19.06 СВ 3 н/о н/о +12.2 +7.2 71 +11 +11 1009.3 913.9
15 19.06 С 3 50 км {ливн. осадки} 10/10 1000 м
[Sc]
+11.8 +7.5 75 +10 +10 1009.1 913.7
18 19.06 СВ 1 н/о н/о +10.6 +9.3 92 +10 +10 1009.3 913.5
21 19.06 СЗ 2 20 км слаб. ливневой дождь 10/10 1000 м
[Cb cap]
+10.7 +10.1 96 +9 +9 1008.9 913.2 +10.1 0.4
00 20.06 С 2 н/о н/о +13.3 +9.2 76 +13 +13 1008.1 913.2
03 20.06 СЗ 2 20 км слаб. ливневой дождь 10/10 1000 м
[Cb cap]
+13.4 +10.4 82 +13 +13 1007.7 913.0
06 20.06 СЗ 2 н/о н/о +15.1 +10.2 73 +15 +15 1006.7 912.6

 

Местоположение метеостанции Колымская (Магаданская область, Россия): широта 61.85 долгота 147.60 высота над уровнем моря 839 м.

В архиве по умолчанию представлена погода в Колымской за последнюю неделю. Архивные данные за месяц целиком и за предыдущие месяцы, начиная с января 2011 года, Вы можете получить, выбрав интересующий диапазон дат из раскрывающегося списка и нажав кнопку "Ввод!".


*Определитесь, кто Вы:
робот инопланетянин человек

Внимание! Время в таблицах - всемирное. Для получения местного времени необходимо прибавить поправку, которая равна 11 ч.

Смотрите также архив погоды в соседних городах и на ближайших метеорологических станциях:

Погода на Озере Джека Лондона (Магаданская область, Россия) (103 км)
Погода в Сусумане (Магаданская область, Россия) (107 км)
Погода в Ягодной (Магаданская область, Россия) (127 км)
Погода в Усть-Омчуге (Магаданская область, Россия) (134 км)
Погода в Усть-Бохапче (Магаданская область, Россия) (159 км)
Погода в Совхозе Эльген (Магаданская область, Россия) (188 км)
Погода в Мадауне (Магаданская область, Россия) (216 км)
Погода в Талоне (Магаданская область, Россия) (239 км)
Погода в Делянкире (Якутия, Россия) (242 км)
Погода в Среднекане (Магаданская область, Россия) (253 км)

Пояснения к столбцам:

Ветер - указаны скорость ветра в м/с - средняя за 10 мин, порывы в срок и между сроками (в фигурных скобках) и направление, откуда дует ветер: С - северный, СВ - северо-восточный, В - восточный, ЮВ - юго-восточный, Ю - южный, ЮЗ - юго-западный, З - западный, СЗ - северо-западный.
Видимость - горизонтальная дальность видимости в метрах или километрах. При видимости от 1 до 10 км при отсутствии осадков обычно наблюдается дымка, при ухудшении видимости до 1 км и менее - туман. В сухую погоду видимость может ухудшаться дымом, пылью или мглою.
Явления - указаны атмосферные явления, наблюдавшиеся в срок или в последний час перед сроком; фигурными скобками обозначены явления, наблюдавшиеся между сроками (за 1-3 часа до срока); квадратными скобками обозначены град или гололедные отложения с указанием их диаметра в мм.
Облачность - указаны через наклонную черту общая и нижняя облачность в баллах и высота нижней границы облаков в метрах; квадратными скобками обозначены формы облаков: Ci - перистые, Cs - перисто-слоистые, Cc - перисто-кучевые, Ac - высококучевые, As - высокослоистые, Sc - слоисто-кучевые, Ns - слоисто-дождевые, Cu - кучевые, Cb - кучево-дождевые. Подробнее классификацию облаков см. в Атласе облаков (PDF).
T - Температура воздуха - температура, измеренная на высоте 2 м над землей.
Td - Температура точки росы - температура, при понижении до которой содержащийся в воздухе водяной пар достигнет насыщения.
f - Относительная влажность воздуха - влажноcть воздуха, измеренная на высоте 2 м над землей.
Te - Эффективная температура - температура, которую ощущает одетый по сезону человек в тени. Характеристика душности погоды. При расчете учитывается влияние влажности воздуха и скорости ветра на теплоощущения человека.
Tes - Эффективная температура на солнце - температура, которую ощущает человек, с поправкой на солнечный нагрев. Характеристика знойности погоды. Зависит от высоты солнца над горизонтом, облачности и скорости ветра. Ночью, в пасмурную погоду, а также при ветре 12 м/с и более поправка равна нулю.
P - Атмосферное давление - приведенное к уровню моря атмосферное давление.
Po - Атмосферное давление - измеренное на уровне метеостанции атмосферное давление.
Tmin - Минимальная температура - минимум температуры воздуха на высоте 2 м над землей.
Tmax - Максимальная температура - максимум температуры воздуха на высоте 2 м над землей.
R - Количество осадков - Количество выпавших осадков за период времени, мм. При наведении курсора мыши на число - период времени, за который выпало указанное количество осадков.
R24 - Количество осадков - Количество выпавших осадков за 24 часа, мм.
S - Снежный покров - Высота снежного покрова, см. При наведении курсора мыши на число - состояние снежного покрова и степень покрытия местности в баллах.